Location: General Nathan Twining Observatory
(34.5931°N, 106.8201°W)
Time: 05:37:27
(UTC-06:00)

Daily predictions for brighter satellites

Satellite Brightness Start Highest point End
(mag) Time Altitude Azimuth Time Altitude Azimuth Time Altitude Azimuth
CENTAUR R/B 4.3 03:30:30 24° N 03:30:30 24° N 03:33:19 10° NNE
Cosmos 2322 Rocket 4.2 03:55:21 21° N 03:55:21 21° N 03:57:08 10° NNE
SL-16 R/B 4.1 03:59:54 22° N 03:59:54 22° N 04:01:53 10° N
COSMOS 2428 4.4 04:03:11 26° ESE 04:03:20 26° ESE 04:07:59 10° NE
CZ-2D R/B 4.2 04:11:56 10° N 04:13:23 18° N 04:13:23 18° N
Resurs 1-4 Rocket 4.3 04:13:00 10° N 04:14:01 15° N 04:14:01 15° N
Cosmos 2360 Rocket 3.0 04:24:41 46° NNE 04:24:41 46° NNE 04:28:35 10° NNE
DELTA 2 R/B (1) 4.0 04:32:03 58° ENE 04:32:03 58° ENE 04:36:30 10° ENE
Nadezhda 1 Rocket 4.1 04:36:06 58° SE 04:37:09 69° E 04:43:10 10° NNE
ADEOS II 2.8 04:38:35 10° NNE 04:43:41 51° E 04:45:16 38° SSE
Meteor 2-13 Rocket 4.5 04:44:44 10° N 04:50:54 77° E 04:57:00 10° S
Cosmos 2333 Rocket 3.9 04:46:40 11° SSE 04:51:13 30° ESE 04:56:07 10° NE
Aureole 3 Rocket 4.5 04:52:06 51° SSW 04:54:12 73° W 05:03:28 10° N
Cosmos 2074 Rocket 3.8 04:48:39 10° N 04:54:52 73° W 04:55:57 60° SSW
Cosmos 2322 4.1 04:59:21 46° NW 04:59:21 46° NW 05:04:15 10° N
EO 1 Del DPAF 4.1 04:59:08 35° SE 05:00:21 50° ENE 05:04:06 10° N
Cosmos 2208 Rocket 4.0 05:01:35 63° SSW 05:02:30 89° WNW 05:07:59 10° NNE
Meteor 1-12 Rocket 4.1 04:58:08 10° N 05:03:48 80° W 05:09:22 11° S
ISS -1.4 05:08:04 17° SE 05:08:04 17° SE 05:08:56 10° SE
Hubble Space Telescope 3.2 05:09:14 12° SSE 05:09:14 12° SSE 05:10:59 10° SE
Okean O Rocket 1.7 05:05:29 10° N 05:09:24 60° NW 05:09:24 60° NW
GOES 2 Rocket 3.9 05:10:28 41° S 05:10:43 42° S 05:16:08 10° ESE
Meteor 1-13 Rocket 4.2 05:10:56 22° S 05:14:33 82° E 05:20:09 10° N
USA 215 3.4 05:10:54 10° SE 05:17:27 76° NE 05:24:00 10° NW
Cosmos 2333 4.1 05:16:04 44° SW 05:17:51 75° WNW 05:23:33 10° NNE
Cosmos 1025 Rocket 4.4 05:15:58 10° SSE 05:20:00 38° E 05:24:04 10° NNE
Meteor PRIRODA 4.4 05:16:21 10° NNE 05:20:02 53° E 05:22:12 22° S
Okean-O 3.9 05:17:40 10° NNE 05:21:52 40° E 05:26:02 10° S
USA 229 DEB 3.7 05:20:52 24° SSW 05:25:18 82° ESE 05:32:14 10° NNE
USA 229 3.7 05:20:56 23° SSW 05:25:24 82° ESE 05:32:20 10° NNE
NOSS 0 Rocket 4.5 05:20:28 10° S 05:26:29 57° ESE 05:32:31 10° NNE
Cosmos 2285 Rocket 4.4 05:20:58 10° S 05:27:17 65° ESE 05:33:40 10° NNE
CZ-4B DEB 4.2 05:22:48 10° N 05:28:17 61° WNW 05:31:10 28° SW
Cosmos 2184 Rocket 4.4 05:24:38 10° NNW 05:30:16 37° W 05:31:55 32° WSW
CZ-4B R/B 3.3 05:25:04 10° N 05:30:36 59° WNW 05:33:32 27° SW
Lacrosse 4 Rocket 1.3 05:29:58 10° NNW 05:34:07 62° WSW 05:38:22 10° SSE
GPS 2-04 Rocket1 3.8 05:33:09 28° S 05:34:12 33° SSE 05:37:39 10° E
OAO 3 Copernicus 4.2 05:32:58 39° W 05:34:52 86° N 05:39:55 10° E
Cosmos 1980 4.1 05:33:17 10° S 05:38:50 64° ESE 05:44:26 10° NNE
ERS-2 2.1 05:35:18 10° NNE 05:39:01 85° ESE 05:41:51 16° SSW
IRAS Rocket 4.4 05:33:44 10° N 05:39:07 53° WNW 05:42:40 21° SW
Cosmos 468 Rocket 3.9 05:39:22 11° SSW 05:44:23 88° WNW 05:49:37 10° NNE
Cosmos 1898 Rocket 4.2 05:41:59 10° N 05:47:06 57° ENE 05:52:11 10° SSE
COSMOS 2428 3.3 05:45:14 27° WSW 05:47:22 36° WNW 05:52:35 10° N
GENESIS II 4.4 05:46:11 17° SSW 05:49:16 73° ESE 05:53:20 10° NNE
Cosmos 2219 Rocket 2.2 05:45:23 18° SW 05:49:30 62° WNW 05:55:03 10° NNE
Cosmos 962 Rocket 4.4 05:43:18 10° N 05:49:34 72° W 05:55:51 10° S
Meteor 1-23 Rocket 4.3 05:44:19 10° S 05:50:08 84° E 05:55:57 10° N
Meteor 2-19 Rocket 4.3 05:48:12 10° N 05:54:17 81° W 06:00:20 10° S
Meteor 2-9 Rocket 4.2 05:50:37 10° N 05:56:18 84° E 06:01:47 10° S
Cosmos 1844 Rocket 2.6 05:55:44 10° NNW 06:01:15 64° WSW 06:06:43 10° S
OTV 4 2.5 06:01:45 11° SSW 06:03:37 19° SSE 06:05:42 10° ESE
EXPRESS MD2 3.5 05:58:45 12° SW 06:03:53 70° SE 06:06:54 10° NE
Cosmos 2154 Rocket 4.4 05:58:28 10° NNW 06:04:06 38° W 06:09:44 10° SSW
Okean 2 3.3 06:00:22 10° S 06:04:30 85° W 06:08:42 10° N
Okean 1-7 Rocket 3.9 06:01:11 10° SSW 06:05:31 44° W 06:09:49 10° N
Tiangong 2 1.8 06:05:02 13° NW 06:07:38 50° NNE 06:10:42 10° E
Cosmos 2360 Rocket 4.1 06:06:28 10° WNW 06:07:44 11° NW 06:09:03 10° NW
Cosmos 1441 Rocket 4.4 06:05:09 10° S 06:08:56 47° E 06:12:47 10° NNE
Cosmos 1238 Rocket 4.4 06:12:55 11° WNW 06:12:55 11° WNW 06:13:16 10° NW
Cosmos 1763 Rocket 3.4 06:08:24 10° SSW 06:13:28 88° ESE 06:18:35 10° NNE
Cosmos 405 Rocket 2.9 06:09:52 10° SSW 06:13:53 59° W 06:17:53 10° N
Cosmos 2278 Rocket 2.7 06:08:48 10° NNW 06:14:27 65° ENE 06:20:03 10° SSE
Cosmos 1515 4.2 06:11:43 10° S 06:15:31 63° E 06:19:19 10° NNE
Cosmos 2237 Rocket 2.2 06:10:24 10° SSW 06:16:01 65° WNW 06:21:42 10° NNE
Meteor 1-15 Rocket 4.4 06:10:13 10° N 06:16:11 90° E 06:22:06 10° S
DELTA 2 R/B (1) 4.1 06:12:48 13° WNW 06:17:42 51° N 06:23:06 10° ENE
Cosmos 1937 Rocket 3.7 06:12:32 10° NNW 06:17:52 80° ENE 06:23:08 10° SSE
Meteor 2-4 Rocket 4.1 06:13:27 10° SSW 06:18:43 40° WNW 06:23:53 10° N
Cosmos 1437 3.0 06:17:29 10° SSW 06:20:38 46° W 06:23:48 10° N
IUS-18 SRM-1 3.9 06:20:33 10° S 06:21:02 10° SSE 06:21:32 10° SE
Cosmos 2181 Rocket 4.5 06:15:30 10° SW 06:21:11 38° WNW 06:26:58 10° N
Cosmos 1666 3.5 06:18:03 10° NNW 06:21:28 30° W 06:24:52 10° SSW
ADEOS II 3.6 06:19:38 10° NNW 06:22:57 17° WNW 06:26:14 10° WSW
Cosmos 1606 Rocket 3.5 06:19:47 10° N 06:24:16 76° W 06:28:43 10° S
SL-8 Rocket 4.0 06:19:52 10° NNW 06:25:57 60° W 06:31:58 10° S
NOAA 6 4.0 06:21:17 10° N 06:26:19 63° WNW 06:31:22 10° SSW
Cosmos 1743 4.3 06:24:06 10° NW 06:26:22 15° W 06:28:38 10° SW
Cosmos 841 Rocket 3.5 06:21:22 10° SSW 06:26:31 87° WNW 06:31:41 10° NNE
Aureole 2 Rocket 3.3 06:27:39 10° SW 06:31:01 31° WNW 06:34:09 10° N
Meteor 1-31 Rocket 4.0 06:28:16 10° NNW 06:31:17 23° WNW 06:34:18 10° SW
ATLAS 5 CENTAUR R/B 2.7 06:25:54 10° NNW 06:32:04 79° ENE 06:38:41 10° SE
Cosmos 2298 Rocket 4.1 06:27:29 10° NNW 06:32:43 58° WSW 06:37:55 10° S
Cosmos 2333 Rocket 3.0 06:30:17 10° SW 06:35:20 32° WNW 06:40:27 10° N
CZ-2C R/B 4.5 06:32:42 10° NNE 06:37:27 35° E 06:42:07 10° SSE
Cosmos 864 Rocket 4.5 06:33:38 10° NNW 06:39:47 69° W 06:45:58 10° S
